Flag for Germany Weather past 2 weeks in Cloppenburg, Lower Saxony, Germany

Now
57 °F

Refreshingly cool.


Feels Like: 57 °F
Forecast: 39 / 61 °F
Wind: 5 mph from South

Location: Meppen-Mil

Current Time: Apr 19, 2015 at 5:52:32 PM

Latest Report: Apr 19, 2015 at 4:20 PM


Visibility: N/A

Pressure: 30.18 "Hg

Humidity: 33%

Dew point: 28 °F

Location of CloppenburgLocation

Historic Weather in Cloppenburg — Graph

°F

Cloppenburg temperature yesterday

Maximum temperature yesterday: 57 °F (at 2:20 PM)
Minimum temperature yesterday: 30 °F (at 6:20 AM)
Average temperature yesterday: 46 °F

Past Weeks' High & Low Weather Summary

 TemperatureHumidityPressure
High72 °F (Apr 15, 2:20 PM)100% (Apr 9, 2:20 AM)30.60 "Hg (Apr 9, 2:20 AM)
Low28 °F (Apr 5, 4:20 AM)30% (Apr 5, 2:20 PM)29.92 "Hg (Apr 11, 4:20 AM)
Average48 °F69%30.25 "Hg
* Reported Apr 4 4:20 PM — Apr 19 4:20 PM, Cloppenburg, Weather by CustomWeather, © 2015

Note: Actual official high and low records may vary slightly from our data, if they occured in-between our weather recording intervals... More about our weather records

Advertising

Cloppenburg weather history for previous 24 hours

 ConditionsComfort  
Time TempWeatherWind HumidityBarometerVisibility
4:20 PM
Sun, Apr 19
57 °FRefreshingly cool.5 mph33%30.18 "HgN/A
3:20 PM57 °FRefreshingly cool.5 mph39%30.18 "HgN/A
2:20 PM55 °FRefreshingly cool.6 mph41%30.18 "HgN/A
1:20 PM54 °FCool.5 mph47%30.21 "HgN/A
12:20 PM50 °FCool.3 mph62%30.21 "HgN/A
11:20 AM48 °FCool.3 mph66%30.21 "HgN/A
10:20 AM46 °FCool.5 mph71%30.21 "HgN/A
9:20 AM43 °FQuite cool.5 mph76%30.18 "HgN/A
8:20 AM41 °FQuite cool.5 mph81%30.18 "HgN/A
7:20 AM39 °FChilly.3 mph87%30.18 "HgN/A
6:20 AM37 °FChilly.3 mph93%30.18 "HgN/A
5:20 AM37 °FChilly.3 mph87%30.18 "HgN/A
4:20 AM37 °FChilly.2 mph87%30.21 "HgN/A
3:20 AM36 °FChilly.3 mph93%30.21 "HgN/A
2:20 AM36 °FChilly.3 mph93%30.24 "Hg5 mi
1:20 AM37 °FChilly.3 mph87%30.27 "HgN/A
12:20 AM37 °FChilly.2 mph87%30.27 "HgN/A
11:20 PM
Sat, Apr 18
39 °FChilly.2 mph87%30.30 "HgN/A
10:20 PM41 °FQuite cool.3 mph87%30.30 "HgN/A
9:20 PM45 °FQuite cool.5 mph76%30.30 "HgN/A
8:20 PM48 °FCool.7 mph66%30.30 "HgN/A
7:20 PM54 °FCool.9 mph44%30.30 "HgN/A
6:20 PM55 °FRefreshingly cool.6 mph44%30.27 "HgN/A
5:20 PM55 °FRefreshingly cool.9 mph44%30.30 "HgN/A
Weather by CustomWeather, © 2015

See weather overviewHow to use our weather pages